• In Italy
  • List of Countries
  • For 7 days
  • Water Temperature
  • Satellite Maps
  • Weather Map
  • Weather Widgets
  • user-avatar
    Login

    Hourly Weather La Rioja

    Today, 20 July, Friday

    Time Temperature Precipitation Wind Pressure Humidity
    00:00 +6°C° 0 mm 4 mps 720 mmHg 39%
    01:00 +6°C° 0 mm 4 mps 721 mmHg 41%
    02:00 +5°C° 0 mm 4 mps 720 mmHg 43%
    03:00 +5°C° 0 mm 3 mps 721 mmHg 47%
    04:00 +4°C° 0 mm 3 mps 721 mmHg 50%
    05:00 +4°C° 0 mm 3 mps 721 mmHg 53%
    06:00 +4°C° 0 mm 3 mps 721 mmHg 53%
    07:00 +4°C° 0 mm 3 mps 722 mmHg 53%
    08:00 +5°C° 0 mm 2 mps 722 mmHg 53%
    09:00 +7°C° 0 mm 3 mps 722 mmHg 47%
    10:00 +9°C° 0 mm 3 mps 722 mmHg 42%
    11:00 +10°C° 0 mm 3 mps 722 mmHg 37%
    12:00 +11°C° 0 mm 3 mps 722 mmHg 35%
    13:00 +13°C° 0 mm 2 mps 721 mmHg 32%
    14:00 +14°C° 0 mm 2 mps 720 mmHg 30%
    15:00 +14°C° 0 mm 2 mps 720 mmHg 30%
    16:00 +14°C° 0 mm 1 mps 720 mmHg 30%
    17:00 +14°C° 0 mm 1 mps 719 mmHg 30%
    18:00 +13°C° 0 mm 1 mps 719 mmHg 34%
    19:00 +11°C° 0 mm 1 mps 719 mmHg 38%
    20:00 +10°C° 0 mm 1 mps 720 mmHg 41%
    21:00 +9°C° 0 mm 2 mps 719 mmHg 41%
    22:00 +9°C° 0 mm 2 mps 719 mmHg 41%
    23:00 +9°C° 0 mm 2 mps 719 mmHg 41%

    Tomorrow, 21 July, Saturday

    Time Temperature Precipitation Wind Pressure Humidity
    00:00 +8°C° 0 mm 2 mps 719 mmHg 41%
    01:00 +8°C° 0 mm 2 mps 719 mmHg 40%
    02:00 +8°C° 0 mm 2 mps 719 mmHg 40%
    03:00 +8°C° 0 mm 2 mps 718 mmHg 40%
    04:00 +7°C° 0 mm 2 mps 717 mmHg 41%
    05:00 +7°C° 0 mm 2 mps 717 mmHg 41%
    06:00 +7°C° 0 mm 2 mps 717 mmHg 39%
    07:00 +8°C° 0 mm 2 mps 717 mmHg 38%
    08:00 +8°C° 0 mm 2 mps 717 mmHg 36%
    09:00 +10°C° 0 mm 2 mps 717 mmHg 31%
    10:00 +13°C° 0 mm 3 mps 716 mmHg 27%
    11:00 +16°C° 0 mm 3 mps 716 mmHg 22%
    12:00 +18°C° 0 mm 3 mps 714 mmHg 21%
    13:00 +19°C° 0 mm 3 mps 713 mmHg 19%
    14:00 +20°C° 0 mm 3 mps 712 mmHg 18%
    15:00 +20°C° 0 mm 3 mps 711 mmHg 18%
    16:00 +20°C° 0 mm 3 mps 710 mmHg 18%
    17:00 +20°C° 0 mm 2 mps 709 mmHg 19%
    18:00 +18°C° 0 mm 2 mps 709 mmHg 22%
    19:00 +16°C° 0 mm 2 mps 709 mmHg 24%
    20:00 +14°C° 0 mm 2 mps 709 mmHg 27%
    21:00 +14°C° 0 mm 2 mps 709 mmHg 27%
    22:00 +13°C° 0 mm 2 mps 709 mmHg 28%
    23:00 +13°C° 0 mm 2 mps 709 mmHg 28%

    Day after tomorrow, 22 July, Sunday

    Time Temperature Precipitation Wind Pressure Humidity
    00:00 +12°C° 0 mm 2 mps 709 mmHg 29%
    01:00 +12°C° 0 mm 2 mps 708 mmHg 30%
    02:00 +12°C° 0 mm 2 mps 708 mmHg 31%
    03:00 +10°C° 0 mm 2 mps 708 mmHg 32%
    04:00 +10°C° 0 mm 2 mps 708 mmHg 33%
    05:00 +10°C° 0 mm 2 mps 708 mmHg 34%
    06:00 +10°C° 0 mm 2 mps 709 mmHg 35%
    07:00 +10°C° 0 mm 3 mps 710 mmHg 36%
    08:00 +10°C° 0 mm 3 mps 711 mmHg 37%
    09:00 +12°C° 0 mm 3 mps 713 mmHg 33%
    10:00 +14°C° 0 mm 4 mps 714 mmHg 29%
    11:00 +16°C° 0 mm 5 mps 716 mmHg 25%
    12:00 +17°C° 0 mm 5 mps 716 mmHg 24%
    13:00 +17°C° 0 mm 6 mps 716 mmHg 22%
    14:00 +19°C° 0 mm 6 mps 716 mmHg 21%
    15:00 +17°C° 0 mm 6 mps 716 mmHg 23%
    16:00 +17°C° 0 mm 5 mps 716 mmHg 24%
    17:00 +16°C° 0 mm 5 mps 716 mmHg 26%
    18:00 +14°C° 0 mm 5 mps 717 mmHg 28%
    19:00 +13°C° 0 mm 4 mps 718 mmHg 31%
    20:00 +11°C° 0 mm 4 mps 720 mmHg 33%
    21:00 +11°C° 0 mm 4 mps 721 mmHg 33%
    22:00 +10°C° 0 mm 4 mps 722 mmHg 32%
    23:00 +9°C° 0 mm 3 mps 723 mmHg 31%

    23 July, Monday

    Time Temperature Precipitation Wind Pressure Humidity
    00:00 +9°C° 0 mm 3 mps 723 mmHg 32%
    01:00 +8°C° 0 mm 3 mps 723 mmHg 32%
    02:00 +7°C° 0 mm 3 mps 724 mmHg 33%
    03:00 +7°C° 0 mm 3 mps 724 mmHg 33%
    04:00 +5°C° 0 mm 3 mps 724 mmHg 34%
    05:00 +5°C° 0 mm 3 mps 724 mmHg 35%
    06:00 +5°C° 0 mm 3 mps 725 mmHg 35%
    07:00 +6°C° 0 mm 2 mps 725 mmHg 35%
    08:00 +6°C° 0 mm 2 mps 726 mmHg 35%
    09:00 +8°C° 0 mm 2 mps 726 mmHg 32%
    10:00 +9°C° 0 mm 2 mps 725 mmHg 28%
    11:00 +12°C° 0 mm 2 mps 725 mmHg 24%
    12:00 +13°C° 0 mm 2 mps 724 mmHg 23%
    13:00 +12°C° 0 mm 3 mps 723 mmHg 22%
    14:00 +13°C° 0 mm 3 mps 722 mmHg 21%
    15:00 +13°C° 0 mm 3 mps 722 mmHg 21%
    16:00 +13°C° 0 mm 3 mps 722 mmHg 21%
    17:00 +13°C° 0 mm 4 mps 722 mmHg 21%
    18:00 +12°C° 0 mm 3 mps 722 mmHg 24%
    19:00 +10°C° 0 mm 3 mps 723 mmHg 26%
    20:00 +9°C° 0 mm 2 mps 723 mmHg 29%
    21:00 +8°C° 0 mm 2 mps 723 mmHg 30%
    22:00 +8°C° 0 mm 3 mps 723 mmHg 32%
    23:00 +7°C° 0 mm 3 mps 723 mmHg 34%

    24 July, Tuesday

    Time Temperature Precipitation Wind Pressure Humidity
    00:00 +7°C° 0 mm 3 mps 723 mmHg 37%
    01:00 +6°C° 0 mm 2 mps 722 mmHg 39%
    02:00 +6°C° 0 mm 2 mps 722 mmHg 42%
    03:00 +5°C° 0 mm 2 mps 722 mmHg 44%
    04:00 +5°C° 0 mm 2 mps 721 mmHg 46%
    05:00 +4°C° 0 mm 2 mps 721 mmHg 49%
    06:00 +4°C° 0 mm 2 mps 721 mmHg 50%
    07:00 +4°C° 0 mm 2 mps 721 mmHg 51%
    08:00 +4°C° 0 mm 2 mps 721 mmHg 53%
    09:00 +6°C° 0 mm 2 mps 721 mmHg 49%
    10:00 +8°C° 0 mm 2 mps 721 mmHg 44%
    11:00 +10°C° 0 mm 2 mps 721 mmHg 40%
    12:00 +11°C° 0 mm 3 mps 720 mmHg 38%
    13:00 +12°C° 0 mm 3 mps 719 mmHg 35%
    14:00 +13°C° 0 mm 3 mps 718 mmHg 33%
    15:00 +13°C° 0 mm 3 mps 718 mmHg 34%
    16:00 +13°C° 0 mm 3 mps 719 mmHg 34%
    17:00 +13°C° 0 mm 3 mps 719 mmHg 35%
    18:00 +12°C° 0 mm 3 mps 719 mmHg 40%
    19:00 +10°C° 0 mm 2 mps 720 mmHg 44%
    20:00 +9°C° 0 mm 2 mps 721 mmHg 49%
    21:00 +8°C° 0 mm 2 mps 721 mmHg 51%
    22:00 +9°C° 0 mm 1 mps 721 mmHg 53%
    23:00 +8°C° 0 mm 1 mps 721 mmHg 55%

    25 July, Wednesday

    Time Temperature Precipitation Wind Pressure Humidity
    00:00 +8°C° 0 mm 1 mps 721 mmHg 58%
    01:00 +7°C° 0 mm 1 mps 721 mmHg 60%
    02:00 +7°C° 0 mm 1 mps 720 mmHg 62%
    03:00 +7°C° 0 mm 1 mps 720 mmHg 64%
    04:00 +6°C° 0 mm 1 mps 720 mmHg 65%
    05:00 +6°C° 0 mm 1 mps 719 mmHg 67%
    06:00 +6°C° 0 mm 1 mps 720 mmHg 65%
    07:00 +7°C° 0 mm 1 mps 720 mmHg 63%
    08:00 +7°C° 0 mm 1 mps 720 mmHg 61%
    09:00 +9°C° 0 mm 2 mps 720 mmHg 54%
    10:00 +12°C° 0 mm 2 mps 720 mmHg 47%
    11:00 +14°C° 0 mm 2 mps 720 mmHg 39%
    12:00 +15°C° 0 mm 2 mps 719 mmHg 37%
    13:00 +16°C° 0 mm 2 mps 717 mmHg 34%
    14:00 +17°C° 0 mm 3 mps 716 mmHg 32%
    15:00 +17°C° 0 mm 3 mps 716 mmHg 32%
    16:00 +17°C° 0 mm 3 mps 716 mmHg 33%
    17:00 +17°C° 0 mm 3 mps 715 mmHg 33%
    18:00 +15°C° 0 mm 2 mps 716 mmHg 39%
    19:00 +13°C° 0 mm 2 mps 716 mmHg 44%
    20:00 +12°C° 0 mm 2 mps 716 mmHg 50%
    21:00 +10°C° 0 mm 2 mps 716 mmHg 53%
    22:00 +11°C° 0 mm 1 mps 716 mmHg 56%
    23:00 +10°C° 0 mm 1 mps 716 mmHg 60%
    Show more